Home   Weather   Tamale   Past weeks

Flag for Ghana Past Weather in Tamale, Ghana — Yesterday and Last 2 Weeks

Now
72 °F

Sunny.


Feels Like: 77 °F
Forecast: 69 / 99 °F
Wind: 3 mph from Northeast

Location: Niamtougou

Current Time: Dec 4, 2016 at 8:08:16 am

Latest Report: Dec 4, 2016 at 7:00 am


Visibility: 10 mi

Pressure: 29.98 "Hg

Humidity: 41%

Dew Point: 46 °F

Location of TamaleLocation

Past Weather in Tamale — Graph

°F

Tamale Temperature Yesterday

Maximum temperature yesterday: 95 °F (at 1:00 pm)
Minimum temperature yesterday: 68 °F (at 3:00 am)
Average temperature yesterday: 85 °F

High & Low Weather Summary for the Past Weeks

 TemperatureHumidityPressure
High99 °F (Nov 20, 2:00 pm)100% (Dec 1, 1:00 pm)30.04 "Hg (Dec 1, 1:00 pm)
Low68 °F (Dec 2, 6:00 am)12% (Nov 30, 3:00 pm)29.80 "Hg (Nov 20, 3:00 pm)
Average84 °F47%29.93 "Hg
* Reported Nov 19 8:00 am — Dec 4 7:00 am, Tamale, Weather by CustomWeather, © 2016

Note: Actual official high and low records may vary slightly from our data, if they occured in-between our weather recording intervals... More about our weather records

Advertising

Tamale Weather History for the Previous 24 Hours

Scroll right to see more
 ConditionsComfort  
Time TempWeatherWind HumidityBarometerVisibility
7:00 am
Sun, Dec 4
72 °FSunny.3 mph41%29.98 "Hg10 mi
6:00 am70 °FSunny.6 mph40%29.95 "Hg10 mi
3:00 am68 °FClear.7 mph64%29.92 "Hg10 mi
12:00 am72 °FClear.7 mph47%29.98 "Hg10 mi
9:00 pm
Sat, Dec 3
75 °FClear.7 mph47%29.98 "Hg10 mi
6:00 pm84 °FClear.5 mph25%29.92 "Hg10 mi
5:00 pm90 °FClear.5 mph17%29.92 "Hg10 mi
4:00 pm93 °FSunny.9 mph14%29.89 "Hg10 mi
3:00 pm95 °FSunny.10 mph13%29.89 "Hg10 mi
2:00 pm95 °FPassing clouds.10 mph13%29.92 "HgN/A
1:00 pm95 °FPassing clouds.10 mph14%29.92 "HgN/A
12:00 pm93 °FPassing clouds.13 mph15%29.95 "HgN/A
11:00 am93 °FPassing clouds.15 mph16%29.98 "HgN/A
10:00 am90 °FPassing clouds.12 mph18%30.01 "HgN/A
9:00 am86 °FSunny.12 mph22%30.01 "Hg10 mi
8:00 am81 °FSunny.8 mph28%30.01 "Hg10 mi
Weather by CustomWeather, © 2016

See weather overviewHow to use our weather pages